EDT,Max TemperatureF,Mean TemperatureF,Min TemperatureF,Max Dew PointF,MeanDew PointF,Min DewpointF,Max Humidity, Mean Humidity, Min Humidity, Max Sea Level PressureIn, Mean Sea Level PressureIn, Min Sea Level PressureIn, Max VisibilityMiles, Mean VisibilityMiles, Min VisibilityMiles, Max Wind SpeedMPH, Mean Wind SpeedMPH, Max Gust SpeedMPH,PrecipitationIn, CloudCover, Events, WindDirDegrees
2012-10-1,70,60,50,52,49,46,89,71,49,29.95,29.81,29.74,10,10,10,14,6,22,0.00,1,,238
2012-10-2,72,60,50,59,54,48,93,82,53,30.06,30.02,29.95,10,8,3,8,2,,0.15,4,Rain,215
2012-10-3,68,64,60,65,61,58,97,93,90,30.15,30.09,30.03,9,3,0,6,2,,0.03,8,Fog-Rain,19
2012-10-4,64,62,60,60,60,58,97,92,87,30.14,30.09,30.03,10,5,1,9,3,,0.04,8,Rain,353
2012-10-5,78,68,57,60,58,52,97,84,40,30.03,29.99,29.92,10,6,0,8,3,,0.00,4,Fog,265
2012-10-6,77,65,53,64,56,45,97,84,58,29.94,29.85,29.74,10,6,0,18,3,31,0.05,2,Fog-Rain,214
2012-10-7,60,48,37,48,43,36,93,84,44,30.07,30.04,29.95,10,8,1,9,2,,0.15,4,Rain,290
2012-10-8,57,47,37,46,41,35,96,83,53,30.31,30.18,30.07,10,6,0,5,1,,0.05,2,Fog-Rain,292
2012-10-9,59,52,48,49,47,45,93,78,69,30.30,30.20,30.12,10,10,10,10,3,17,0.00,8,,57
2012-10-10,63,58,54,60,55,50,93,91,86,30.11,29.94,29.73,10,7,1,10,2,,0.46,7,Rain,110
2012-10-11,59,50,37,47,37,34,93,62,39,30.15,30.03,29.84,10,10,10,15,8,23,0.00,0,,269
2012-10-12,53,45,37,43,34,25,96,68,44,30.37,30.14,30.02,10,10,6,16,4,25,0.03,1,Rain,302
2012-10-13,53,40,26,37,27,22,89,59,30,30.48,30.41,30.33,10,10,10,10,4,,0.00,0,,268
2012-10-14,66,52,39,58,50,37,93,74,58,30.32,30.11,29.98,10,10,5,14,6,23,0.04,4,Rain,204
2012-10-15,72,67,63,63,60,56,90,80,68,29.96,29.77,29.63,10,10,2,14,10,28,0.16,5,Rain,199
2012-10-16,64,50,36,61,45,33,93,74,42,29.87,29.67,29.57,10,10,5,14,6,28,0.07,4,Rain,273
2012-10-17,63,45,28,43,32,27,96,83,29,30.01,29.94,29.88,10,5,0,8,1,,0.00,1,Fog,267
2012-10-18,66,50,34,48,40,32,97,87,43,30.12,30.07,30.02,10,4,0,9,1,,0.00,0,Fog,130
2012-10-19,71,56,42,66,55,41,97,87,55,30.07,29.91,29.75,10,6,1,18,4,29,0.12,6,Rain,133
2012-10-20,73,66,57,66,63,51,93,87,49,29.77,29.70,29.63,10,8,1,10,5,,0.54,6,Rain-Thunderstorm,179
2012-10-21,64,52,39,45,40,37,93,61,39,29.91,29.86,29.78,10,10,6,12,4,22,0.00,1,,256
2012-10-22,66,56,42,43,40,39,92,62,36,29.99,29.93,29.90,10,10,10,16,6,23,0.00,1,,264
2012-10-23,66,52,37,51,41,34,93,77,37,30.11,30.05,30.02,10,7,1,8,1,,0.02,1,Rain,268
2012-10-24,55,50,46,51,44,39,93,74,57,30.22,30.16,30.12,10,10,7,6,1,,0.00,8,,33
2012-10-25,66,50,34,43,36,30,96,85,30,30.30,30.25,30.22,10,4,0,6,0,,0.00,0,Fog,157
2012-10-26,68,51,36,52,42,34,97,85,58,30.27,30.21,30.13,10,6,1,8,1,,0.00,1,,201
2012-10-27,69,54,41,53,44,39,97,86,56,30.13,30.07,29.99,10,6,0,6,1,,0.00,3,Fog,49
2012-10-28,57,54,51,52,50,48,94,86,72,29.99,29.88,29.72,10,7,2,13,6,22,0.13,7,Rain,50
2012-10-29,64,58,53,61,56,51,94,90,84,29.71,29.37,29.12,10,3,1,25,14,47,1.61,8,Rain,64
2012-10-30,69,60,52,60,56,50,97,86,65,29.56,29.50,29.31,10,7,1,15,9,24,0.48,6,Rain-Thunderstorm,137
2012-10-31,55,52,48,54,49,41,97,86,64,29.58,29.52,29.46,10,7,0,9,2,17,0.09,7,Fog-Rain,200